Location: Henau
(47.4548°N, 9.1164°E)
Time: 20:05:20
(UTC+00:00)

Cosmos 2084 Rocket - Pass Details

Date: 03 March 2021
Orbit: 527 x 653 km, 62.8° (Epoch: 14 April)

Event Time Altitude Azimuth Distance (km) Brightness Sun altitude
Rises 18:23:47 0° 316° (NW) 2,805 7.7 -13.0°
Reaches altitude 10° 18:26:00 10° 314° (NW) 1,923 6.9 -13.4°
Maximum altitude 18:30:19 66° 232° (SW) 663 3.9 -14.1°
Drops below altitude 10° 18:34:47 10° 151° (SSE) 1,987 5.8 -14.8°
Enters shadow 18:35:01 - 151° (SSE) 2,080 5.9 -14.9°
